Year,Month,Day,Hour,Minute,Value (Times are PST for windgust in km/hr)
2006,01,30,00,00,22.50
2006,01,30,00,01,11.30
2006,01,30,00,02,6.40
2006,01,30,00,03,11.30
2006,01,30,00,04,12.90
2006,01,30,00,05,9.60
2006,01,30,00,06,11.30
2006,01,30,00,07,8.10
2006,01,30,00,08,6.40
2006,01,30,00,09,11.30
2006,01,30,00,10,11.30
2006,01,30,00,11,6.40
2006,01,30,00,12,14.50
2006,01,30,00,13,4.80
2006,01,30,00,14,9.60
2006,01,30,00,15,9.60
2006,01,30,00,16,11.30
2006,01,30,00,17,14.50
2006,01,30,00,18,9.60
2006,01,30,00,19,8.10
2006,01,30,00,20,12.90
2006,01,30,00,21,9.60
2006,01,30,00,22,8.10
2006,01,30,00,23,11.30
2006,01,30,00,24,8.10
2006,01,30,00,25,6.40
2006,01,30,00,26,8.10
2006,01,30,00,27,8.10
2006,01,30,00,28,9.60
2006,01,30,00,29,11.30
2006,01,30,00,30,8.10
2006,01,30,00,31,11.30
2006,01,30,00,32,9.60
2006,01,30,00,33,8.10
2006,01,30,00,34,9.60
2006,01,30,00,35,6.40
2006,01,30,00,36,8.10
2006,01,30,00,37,9.60
2006,01,30,00,38,11.30
2006,01,30,00,39,4.80
2006,01,30,00,40,8.10
2006,01,30,00,41,6.40
2006,01,30,00,42,9.60
2006,01,30,00,43,9.60
2006,01,30,00,44,16.10
2006,01,30,00,45,8.10
2006,01,30,00,46,4.80
2006,01,30,00,47,9.60
2006,01,30,00,48,8.10
2006,01,30,00,49,6.40
2006,01,30,00,50,9.60
2006,01,30,00,51,6.40
2006,01,30,00,52,6.40
2006,01,30,00,53,9.60
2006,01,30,00,54,6.40
2006,01,30,00,55,6.40
2006,01,30,00,56,6.40
2006,01,30,00,57,11.30
2006,01,30,00,58,6.40
2006,01,30,00,59,9.60
2006,01,30,01,00,4.80
2006,01,30,01,01,9.60
2006,01,30,01,02,14.50
2006,01,30,01,03,11.30
2006,01,30,01,04,4.80
2006,01,30,01,05,8.10
2006,01,30,01,06,16.10
2006,01,30,01,07,8.10
2006,01,30,01,08,8.10
2006,01,30,01,09,6.40
2006,01,30,01,10,8.10
2006,01,30,01,11,14.50
2006,01,30,01,12,4.80
2006,01,30,01,13,8.10
2006,01,30,01,14,11.30
2006,01,30,01,15,9.60
2006,01,30,01,16,12.90
2006,01,30,01,17,9.60
2006,01,30,01,18,4.80
2006,01,30,01,19,8.10
2006,01,30,01,20,6.40
2006,01,30,01,21,11.30
2006,01,30,01,22,11.30
2006,01,30,01,23,6.40
2006,01,30,01,24,9.60
2006,01,30,01,25,8.10
2006,01,30,01,26,14.50
2006,01,30,01,27,12.90
2006,01,30,01,28,9.60
2006,01,30,01,29,9.60
2006,01,30,01,30,8.10
2006,01,30,01,31,14.50
2006,01,30,01,32,8.10
2006,01,30,01,33,8.10
2006,01,30,01,34,8.10
2006,01,30,01,35,9.60
2006,01,30,01,36,8.10
2006,01,30,01,37,14.50
2006,01,30,01,38,9.60
2006,01,30,01,39,14.50
2006,01,30,01,40,14.50
2006,01,30,01,41,8.10
2006,01,30,01,42,11.30
2006,01,30,01,43,12.90
2006,01,30,01,44,9.60
2006,01,30,01,45,8.10
2006,01,30,01,46,14.50
2006,01,30,01,47,14.50
2006,01,30,01,48,14.50
2006,01,30,01,49,20.90
2006,01,30,01,50,9.60
2006,01,30,01,51,16.10
2006,01,30,01,52,14.50
2006,01,30,01,53,11.30
2006,01,30,01,54,8.10
2006,01,30,01,55,11.30
2006,01,30,01,56,17.70
2006,01,30,01,57,16.10
2006,01,30,01,58,17.70
2006,01,30,01,59,9.60
2006,01,30,02,00,9.60
2006,01,30,02,01,14.50
2006,01,30,02,02,19.30
2006,01,30,02,03,16.10
2006,01,30,02,04,9.60
2006,01,30,02,05,9.60
2006,01,30,02,06,11.30
2006,01,30,02,07,9.60
2006,01,30,02,08,14.50
2006,01,30,02,09,16.10
2006,01,30,02,10,16.10
2006,01,30,02,11,11.30
2006,01,30,02,12,11.30
2006,01,30,02,13,14.50
2006,01,30,02,14,12.90
2006,01,30,02,15,8.10
2006,01,30,02,16,6.40
2006,01,30,02,17,11.30
2006,01,30,02,18,16.10
2006,01,30,02,19,14.50
2006,01,30,02,20,9.60
2006,01,30,02,21,9.60
2006,01,30,02,22,11.30
2006,01,30,02,23,9.60
2006,01,30,02,24,6.40
2006,01,30,02,25,8.10
2006,01,30,02,26,14.50
2006,01,30,02,27,9.60
2006,01,30,02,28,11.30
2006,01,30,02,29,14.50
2006,01,30,02,30,11.30
2006,01,30,02,31,9.60
2006,01,30,02,32,9.60
2006,01,30,02,33,8.10
2006,01,30,02,34,9.60
2006,01,30,02,35,11.30
2006,01,30,02,36,14.50
2006,01,30,02,37,9.60
2006,01,30,02,38,11.30
2006,01,30,02,39,9.60
2006,01,30,02,40,16.10
2006,01,30,02,41,9.60
2006,01,30,02,42,14.50
2006,01,30,02,43,8.10
2006,01,30,02,44,8.10
2006,01,30,02,45,8.10
2006,01,30,02,46,12.90
2006,01,30,02,47,9.60
2006,01,30,02,48,9.60
2006,01,30,02,49,8.10
2006,01,30,02,50,9.60
2006,01,30,02,51,16.10
2006,01,30,02,52,8.10
2006,01,30,02,53,14.50
2006,01,30,02,54,12.90
2006,01,30,02,55,11.30
2006,01,30,02,56,9.60
2006,01,30,02,57,4.80
2006,01,30,02,58,11.30
2006,01,30,02,59,17.70
2006,01,30,03,00,8.10
2006,01,30,03,01,4.80
2006,01,30,03,02,16.10
2006,01,30,03,03,17.70
2006,01,30,03,04,4.80
2006,01,30,03,05,11.30
2006,01,30,03,06,6.40
2006,01,30,03,07,8.10
2006,01,30,03,08,9.60
2006,01,30,03,09,9.60
2006,01,30,03,10,11.30
2006,01,30,03,11,17.70
2006,01,30,03,12,16.10
2006,01,30,03,13,17.70
2006,01,30,03,14,14.50
2006,01,30,03,15,11.30
2006,01,30,03,16,19.30
2006,01,30,03,17,9.60
2006,01,30,03,18,11.30
2006,01,30,03,19,16.10
2006,01,30,03,20,11.30
2006,01,30,03,21,9.60
2006,01,30,03,22,8.10
2006,01,30,03,23,14.50
2006,01,30,03,24,12.90
2006,01,30,03,25,11.30
2006,01,30,03,26,6.40
2006,01,30,03,27,6.40
2006,01,30,03,28,14.50
2006,01,30,03,29,4.80
2006,01,30,03,30,6.40
2006,01,30,03,31,9.60
2006,01,30,03,32,4.80
2006,01,30,03,33,14.50
2006,01,30,03,34,14.50
2006,01,30,03,35,9.60
2006,01,30,03,36,6.40
2006,01,30,03,37,8.10
2006,01,30,03,38,14.50
2006,01,30,03,39,11.30
2006,01,30,03,40,8.10
2006,01,30,03,41,6.40
2006,01,30,03,42,8.10
2006,01,30,03,43,8.10
2006,01,30,03,44,8.10
2006,01,30,03,45,8.10
2006,01,30,03,46,8.10
2006,01,30,03,47,9.60
2006,01,30,03,48,11.30
2006,01,30,03,49,17.70
2006,01,30,03,50,11.30
2006,01,30,03,51,16.10
2006,01,30,03,52,9.60
2006,01,30,03,53,6.40
2006,01,30,03,54,4.80
2006,01,30,03,55,9.60
2006,01,30,03,56,8.10
2006,01,30,03,57,4.80
2006,01,30,03,58,6.40
2006,01,30,03,59,6.40
2006,01,30,04,00,4.80
2006,01,30,04,01,3.20
2006,01,30,04,02,6.40
2006,01,30,04,03,9.60
2006,01,30,04,04,11.30
2006,01,30,04,05,6.40
2006,01,30,04,06,11.30
2006,01,30,04,07,19.30
2006,01,30,04,08,20.90
2006,01,30,04,09,16.10
2006,01,30,04,10,8.10
2006,01,30,04,11,9.60
2006,01,30,04,12,14.50
2006,01,30,04,13,9.60
2006,01,30,04,14,8.10
2006,01,30,04,15,11.30
2006,01,30,04,16,9.60
2006,01,30,04,17,16.10
2006,01,30,04,18,14.50
2006,01,30,04,19,14.50
2006,01,30,04,20,16.10
2006,01,30,04,21,16.10
2006,01,30,04,22,17.70
2006,01,30,04,23,16.10
2006,01,30,04,24,19.30
2006,01,30,04,25,11.30
2006,01,30,04,26,8.10
2006,01,30,04,27,11.30
2006,01,30,04,28,16.10
2006,01,30,04,29,14.50
2006,01,30,04,30,14.50
2006,01,30,04,31,6.40
2006,01,30,04,32,8.10
2006,01,30,04,33,9.60
2006,01,30,04,34,11.30
2006,01,30,04,35,8.10
2006,01,30,04,36,9.60
2006,01,30,04,37,8.10
2006,01,30,04,38,11.30
2006,01,30,04,39,9.60
2006,01,30,04,40,16.10
2006,01,30,04,41,8.10
2006,01,30,04,42,8.10
2006,01,30,04,43,16.10
2006,01,30,04,44,8.10
2006,01,30,04,45,9.60
2006,01,30,04,46,16.10
2006,01,30,04,47,12.90
2006,01,30,04,48,14.50
2006,01,30,04,49,6.40
2006,01,30,04,50,8.10
2006,01,30,04,51,8.10
2006,01,30,04,52,8.10
2006,01,30,04,53,8.10
2006,01,30,04,54,9.60
2006,01,30,04,55,9.60
2006,01,30,04,56,11.30
2006,01,30,04,57,12.90
2006,01,30,04,58,9.60
2006,01,30,04,59,6.40
2006,01,30,05,00,8.10
2006,01,30,05,01,8.10
2006,01,30,05,02,11.30
2006,01,30,05,03,9.60
2006,01,30,05,04,9.60
2006,01,30,05,05,11.30
2006,01,30,05,06,6.40
2006,01,30,05,07,9.60
2006,01,30,05,08,9.60
2006,01,30,05,09,8.10
2006,01,30,05,10,8.10
2006,01,30,05,11,8.10
2006,01,30,05,12,9.60
2006,01,30,05,13,8.10
2006,01,30,05,14,4.80
2006,01,30,05,15,6.40
2006,01,30,05,16,8.10
2006,01,30,05,17,6.40
2006,01,30,05,18,6.40
2006,01,30,05,19,6.40
2006,01,30,05,20,4.80
2006,01,30,05,21,4.80
2006,01,30,05,22,6.40
2006,01,30,05,23,4.80
2006,01,30,05,24,8.10
2006,01,30,05,25,11.30
2006,01,30,05,26,8.10
2006,01,30,05,27,9.60
2006,01,30,05,28,9.60
2006,01,30,05,29,6.40
2006,01,30,05,30,6.40
2006,01,30,05,31,8.10
2006,01,30,05,32,8.10
2006,01,30,05,33,11.30
2006,01,30,05,34,11.30
2006,01,30,05,35,11.30
2006,01,30,05,36,9.60
2006,01,30,05,37,6.40
2006,01,30,05,38,9.60
2006,01,30,05,39,14.50
2006,01,30,05,40,14.50
2006,01,30,05,41,11.30
2006,01,30,05,42,12.90
2006,01,30,05,43,11.30
2006,01,30,05,44,8.10
2006,01,30,05,45,9.60
2006,01,30,05,46,9.60
2006,01,30,05,47,9.60
2006,01,30,05,48,11.30
2006,01,30,05,49,11.30
2006,01,30,05,50,11.30
2006,01,30,05,51,9.60
2006,01,30,05,52,9.60
2006,01,30,05,53,19.30
2006,01,30,05,54,12.90
2006,01,30,05,55,11.30
2006,01,30,05,56,11.30
2006,01,30,05,57,14.50
2006,01,30,05,58,14.50
2006,01,30,05,59,11.30
2006,01,30,06,00,16.10
2006,01,30,06,01,11.30
2006,01,30,06,02,9.60
2006,01,30,06,03,11.30
2006,01,30,06,04,16.10
2006,01,30,06,05,14.50
2006,01,30,06,06,16.10
2006,01,30,06,07,9.60
2006,01,30,06,08,8.10
2006,01,30,06,09,17.70
2006,01,30,06,10,9.60
2006,01,30,06,11,6.40
2006,01,30,06,12,17.70
2006,01,30,06,13,14.50
2006,01,30,06,14,11.30
2006,01,30,06,15,9.60
2006,01,30,06,16,16.10
2006,01,30,06,17,14.50
2006,01,30,06,18,9.60
2006,01,30,06,19,16.10
2006,01,30,06,20,17.70
2006,01,30,06,21,16.10
2006,01,30,06,22,16.10
2006,01,30,06,23,14.50
2006,01,30,06,24,11.30
2006,01,30,06,25,19.30
2006,01,30,06,26,12.90
2006,01,30,06,27,11.30
2006,01,30,06,28,11.30
2006,01,30,06,29,19.30
2006,01,30,06,30,9.60
2006,01,30,06,31,25.70
2006,01,30,06,32,17.70
2006,01,30,06,33,16.10
2006,01,30,06,34,12.90
2006,01,30,06,35,9.60
2006,01,30,06,36,11.30
2006,01,30,06,37,11.30
2006,01,30,06,38,6.40
2006,01,30,06,39,17.70
2006,01,30,06,40,16.10
2006,01,30,06,41,9.60
2006,01,30,06,42,9.60
2006,01,30,06,43,8.10
2006,01,30,06,44,19.30
2006,01,30,06,45,14.50
2006,01,30,06,46,9.60
2006,01,30,06,47,11.30
2006,01,30,06,48,6.40
2006,01,30,06,49,8.10
2006,01,30,06,50,8.10
2006,01,30,06,51,11.30
2006,01,30,06,52,6.40
2006,01,30,06,53,11.30
2006,01,30,06,54,9.60
2006,01,30,06,55,11.30
2006,01,30,06,56,8.10
2006,01,30,06,57,6.40
2006,01,30,06,58,6.40
2006,01,30,06,59,9.60
2006,01,30,07,00,11.30
2006,01,30,07,01,8.10
2006,01,30,07,02,9.60
2006,01,30,07,03,8.10
2006,01,30,07,04,11.30
2006,01,30,07,05,9.60
2006,01,30,07,06,16.10
2006,01,30,07,07,11.30
2006,01,30,07,08,11.30
2006,01,30,07,09,8.10
2006,01,30,07,10,16.10
2006,01,30,07,11,9.60
2006,01,30,07,12,8.10
2006,01,30,07,13,14.50
2006,01,30,07,14,9.60
2006,01,30,07,15,8.10
2006,01,30,07,16,9.60
2006,01,30,07,17,11.30
2006,01,30,07,18,4.80
2006,01,30,07,19,9.60
2006,01,30,07,20,8.10
2006,01,30,07,21,6.40
2006,01,30,07,22,8.10
2006,01,30,07,23,6.40
2006,01,30,07,24,4.80
2006,01,30,07,25,6.40
2006,01,30,07,26,9.60
2006,01,30,07,27,8.10
2006,01,30,07,28,8.10
2006,01,30,07,29,9.60
2006,01,30,07,30,6.40
2006,01,30,07,31,14.50
2006,01,30,07,32,19.30
2006,01,30,07,33,11.30
2006,01,30,07,34,19.30
2006,01,30,07,35,16.10
2006,01,30,07,36,14.50
2006,01,30,07,37,17.70
2006,01,30,07,38,11.30
2006,01,30,07,39,9.60
2006,01,30,07,40,9.60
2006,01,30,07,41,11.30
2006,01,30,07,42,9.60
2006,01,30,07,43,16.10
2006,01,30,07,44,14.50
2006,01,30,07,45,9.60
2006,01,30,07,46,11.30
2006,01,30,07,47,11.30
2006,01,30,07,48,14.50
2006,01,30,07,49,11.30
2006,01,30,07,50,19.30
2006,01,30,07,51,9.60
2006,01,30,07,52,8.10
2006,01,30,07,53,8.10
2006,01,30,07,54,16.10
2006,01,30,07,55,9.60
2006,01,30,07,56,8.10
2006,01,30,07,57,12.90
2006,01,30,07,58,12.90
2006,01,30,07,59,12.90
2006,01,30,08,00,16.10
2006,01,30,08,01,14.50
2006,01,30,08,02,4.80
2006,01,30,08,03,11.30
2006,01,30,08,04,6.40
2006,01,30,08,05,11.30
2006,01,30,08,06,8.10
2006,01,30,08,07,4.80
2006,01,30,08,08,11.30
2006,01,30,08,09,12.90
2006,01,30,08,10,9.60
2006,01,30,08,11,11.30
2006,01,30,08,12,4.80
2006,01,30,08,13,9.60
2006,01,30,08,14,11.30
2006,01,30,08,15,12.90
2006,01,30,08,16,11.30
2006,01,30,08,17,16.10
2006,01,30,08,18,9.60
2006,01,30,08,19,9.60
2006,01,30,08,20,8.10
2006,01,30,08,21,8.10
2006,01,30,08,22,4.80
2006,01,30,08,23,8.10
2006,01,30,08,24,11.30
2006,01,30,08,25,6.40
2006,01,30,08,26,8.10
2006,01,30,08,27,8.10
2006,01,30,08,28,9.60
2006,01,30,08,29,14.50
2006,01,30,08,30,4.80
2006,01,30,08,31,8.10
2006,01,30,08,32,9.60
2006,01,30,08,33,6.40
2006,01,30,08,34,6.40
2006,01,30,08,35,6.40
2006,01,30,08,36,8.10
2006,01,30,08,37,8.10
2006,01,30,08,38,8.10
2006,01,30,08,39,6.40
2006,01,30,08,40,3.20
2006,01,30,08,41,4.80
2006,01,30,08,42,4.80
2006,01,30,08,43,3.20
2006,01,30,08,44,3.20
2006,01,30,08,45,4.80
2006,01,30,08,46,4.80
2006,01,30,08,47,3.20
2006,01,30,08,48,4.80
2006,01,30,08,49,3.20
2006,01,30,08,50,8.10
2006,01,30,08,51,8.10
2006,01,30,08,52,11.30
2006,01,30,08,53,6.40
2006,01,30,08,54,11.30
2006,01,30,08,55,8.10
2006,01,30,08,56,4.80
2006,01,30,08,57,8.10
2006,01,30,08,58,8.10
2006,01,30,08,59,9.60
2006,01,30,09,00,11.30
2006,01,30,09,01,6.40
2006,01,30,09,02,6.40
2006,01,30,09,03,11.30
2006,01,30,09,04,8.10
2006,01,30,09,05,6.40
2006,01,30,09,06,8.10
2006,01,30,09,07,8.10
2006,01,30,09,08,8.10
2006,01,30,09,09,9.60
2006,01,30,09,10,8.10
2006,01,30,09,11,8.10
2006,01,30,09,12,11.30
2006,01,30,09,13,6.40
2006,01,30,09,14,8.10
2006,01,30,09,15,8.10
2006,01,30,09,16,8.10
2006,01,30,09,17,16.10
2006,01,30,09,18,19.30
2006,01,30,09,19,12.90
2006,01,30,09,20,12.90
2006,01,30,09,21,14.50
2006,01,30,09,22,11.30
2006,01,30,09,23,9.60
2006,01,30,09,24,9.60
2006,01,30,09,25,9.60
2006,01,30,09,26,16.10
2006,01,30,09,27,16.10
2006,01,30,09,28,9.60
2006,01,30,09,29,8.10
2006,01,30,09,30,9.60
2006,01,30,09,31,9.60
2006,01,30,09,32,9.60
2006,01,30,09,33,9.60
2006,01,30,09,34,8.10
2006,01,30,09,35,14.50
2006,01,30,09,36,9.60
2006,01,30,09,37,16.10
2006,01,30,09,38,16.10
2006,01,30,09,39,9.60
2006,01,30,09,40,12.90
2006,01,30,09,41,16.10
2006,01,30,09,42,16.10
2006,01,30,09,43,9.60
2006,01,30,09,44,17.70
2006,01,30,09,45,14.50
2006,01,30,09,46,12.90
2006,01,30,09,47,16.10
2006,01,30,09,48,20.90
2006,01,30,09,49,16.10
2006,01,30,09,50,12.90
2006,01,30,09,51,17.70
2006,01,30,09,52,16.10
2006,01,30,09,53,22.50
2006,01,30,09,54,22.50
2006,01,30,09,55,24.20
2006,01,30,09,56,19.30
2006,01,30,09,57,17.70
2006,01,30,09,58,20.90
2006,01,30,09,59,11.30
2006,01,30,10,00,14.50
2006,01,30,10,01,11.30
2006,01,30,10,02,14.50
2006,01,30,10,03,9.60
2006,01,30,10,04,11.30
2006,01,30,10,05,19.30
2006,01,30,10,06,14.50
2006,01,30,10,07,24.20
2006,01,30,10,08,8.10
2006,01,30,10,09,17.70
2006,01,30,10,10,24.20
2006,01,30,10,11,11.30
2006,01,30,10,12,16.10
2006,01,30,10,13,25.70
2006,01,30,10,14,14.50
2006,01,30,10,15,17.70
2006,01,30,10,16,22.50
2006,01,30,10,17,11.30
2006,01,30,10,18,17.70
2006,01,30,10,19,14.50
2006,01,30,10,20,14.50
2006,01,30,10,21,9.60
2006,01,30,10,22,11.30
2006,01,30,10,23,9.60
2006,01,30,10,24,12.90
2006,01,30,10,25,19.30
2006,01,30,10,26,12.90
2006,01,30,10,27,9.60
2006,01,30,10,28,16.10
2006,01,30,10,29,8.10
2006,01,30,10,30,16.10
2006,01,30,10,31,17.70
2006,01,30,10,32,24.20
2006,01,30,10,33,16.10
2006,01,30,10,34,16.10
2006,01,30,10,35,14.50
2006,01,30,10,36,24.20
2006,01,30,10,37,22.50
2006,01,30,10,38,17.70
2006,01,30,10,39,16.10
2006,01,30,10,40,20.90
2006,01,30,10,41,29.00
2006,01,30,10,42,22.50
2006,01,30,10,43,19.30
2006,01,30,10,44,17.70
2006,01,30,10,45,24.20
2006,01,30,10,46,22.50
2006,01,30,10,47,22.50
2006,01,30,10,48,22.50
2006,01,30,10,49,19.30
2006,01,30,10,50,22.50
2006,01,30,10,51,20.90
2006,01,30,10,52,17.70
2006,01,30,10,53,16.10
2006,01,30,10,54,17.70
2006,01,30,10,55,20.90
2006,01,30,10,56,16.10
2006,01,30,10,57,20.90
2006,01,30,10,58,16.10
2006,01,30,10,59,17.70
2006,01,30,11,00,16.10
2006,01,30,11,01,24.20
2006,01,30,11,02,20.90
2006,01,30,11,03,19.30
2006,01,30,11,04,16.10
2006,01,30,11,05,19.30
2006,01,30,11,06,27.40
2006,01,30,11,07,24.20
2006,01,30,11,08,29.00
2006,01,30,11,09,19.30
2006,01,30,11,10,16.10
2006,01,30,11,11,19.30
2006,01,30,11,12,27.40
2006,01,30,11,13,20.90
2006,01,30,11,14,24.20
2006,01,30,11,15,16.10
2006,01,30,11,16,22.50
2006,01,30,11,17,20.90
2006,01,30,11,18,24.20
2006,01,30,11,19,16.10
2006,01,30,11,20,25.70
2006,01,30,11,21,24.20
2006,01,30,11,22,29.00
2006,01,30,11,23,22.50
2006,01,30,11,24,16.10
2006,01,30,11,25,33.80
2006,01,30,11,26,30.60
2006,01,30,11,27,27.40
2006,01,30,11,28,24.20
2006,01,30,11,29,22.50
2006,01,30,11,30,33.80
2006,01,30,11,31,22.50
2006,01,30,11,32,25.70
2006,01,30,11,33,22.50
2006,01,30,11,34,20.90
2006,01,30,11,35,22.50
2006,01,30,11,36,19.30
2006,01,30,11,37,22.50
2006,01,30,11,38,22.50
2006,01,30,11,39,25.70
2006,01,30,11,40,22.50
2006,01,30,11,41,20.90
2006,01,30,11,42,20.90
2006,01,30,11,43,38.60
2006,01,30,11,44,25.70
2006,01,30,11,45,30.60
2006,01,30,11,46,25.70
2006,01,30,11,47,27.40
2006,01,30,11,48,25.70
2006,01,30,11,49,25.70
2006,01,30,11,50,30.60
2006,01,30,11,51,22.50
2006,01,30,11,52,16.10
2006,01,30,11,53,27.40
2006,01,30,11,54,27.40
2006,01,30,11,55,29.00
2006,01,30,11,56,16.10
2006,01,30,11,57,20.90
2006,01,30,11,58,24.20
2006,01,30,11,59,14.50
2006,01,30,12,00,20.90
2006,01,30,12,01,22.50
2006,01,30,12,02,16.10
2006,01,30,12,03,17.70
2006,01,30,12,04,19.30
2006,01,30,12,05,11.30
2006,01,30,12,06,33.80
2006,01,30,12,07,16.10
2006,01,30,12,08,29.00
2006,01,30,12,09,24.20
2006,01,30,12,10,25.70
2006,01,30,12,11,17.70
2006,01,30,12,12,11.30
2006,01,30,12,13,17.70
2006,01,30,12,14,19.30
2006,01,30,12,15,17.70
2006,01,30,12,16,16.10
2006,01,30,12,17,9.60
2006,01,30,12,18,19.30
2006,01,30,12,19,27.40
2006,01,30,12,20,19.30
2006,01,30,12,21,16.10
2006,01,30,12,22,22.50
2006,01,30,12,23,29.00
2006,01,30,12,24,22.50
2006,01,30,12,25,24.20
2006,01,30,12,26,27.40
2006,01,30,12,27,25.70
2006,01,30,12,28,30.60
2006,01,30,12,29,14.50
2006,01,30,12,30,25.70
2006,01,30,12,31,24.20
2006,01,30,12,32,22.50
2006,01,30,12,33,12.90
2006,01,30,12,34,24.20
2006,01,30,12,35,22.50
2006,01,30,12,36,19.30
2006,01,30,12,37,30.60
2006,01,30,12,38,27.40
2006,01,30,12,39,6.40
2006,01,30,12,40,20.90
2006,01,30,12,41,25.70
2006,01,30,12,42,20.90
2006,01,30,12,43,16.10
2006,01,30,12,44,22.50
2006,01,30,12,45,29.00
2006,01,30,12,46,19.30
2006,01,30,12,47,22.50
2006,01,30,12,48,22.50
2006,01,30,12,49,27.40
2006,01,30,12,50,19.30
2006,01,30,12,51,17.70
2006,01,30,12,52,29.00
2006,01,30,12,53,35.40
2006,01,30,12,54,25.70
2006,01,30,12,55,20.90
2006,01,30,12,56,29.00
2006,01,30,12,57,22.50
2006,01,30,12,58,20.90
2006,01,30,12,59,12.90
2006,01,30,13,00,30.60
2006,01,30,13,01,27.40
2006,01,30,13,02,19.30
2006,01,30,13,03,6.40
2006,01,30,13,04,24.20
2006,01,30,13,05,17.70
2006,01,30,13,06,20.90
2006,01,30,13,07,22.50
2006,01,30,13,08,19.30
2006,01,30,13,09,22.50
2006,01,30,13,10,20.90
2006,01,30,13,11,24.20
2006,01,30,13,12,14.50
2006,01,30,13,13,22.50
2006,01,30,13,14,19.30
2006,01,30,13,15,29.00
2006,01,30,13,16,22.50
2006,01,30,13,17,24.20
2006,01,30,13,18,20.90
2006,01,30,13,19,16.10
2006,01,30,13,20,19.30
2006,01,30,13,21,12.90
2006,01,30,13,22,19.30
2006,01,30,13,23,17.70
2006,01,30,13,24,17.70
2006,01,30,13,25,17.70
2006,01,30,13,26,20.90
2006,01,30,13,27,19.30
2006,01,30,13,28,9.60
2006,01,30,13,29,14.50
2006,01,30,13,30,14.50
2006,01,30,13,31,16.10
2006,01,30,13,32,16.10
2006,01,30,13,33,11.30
2006,01,30,13,34,19.30
2006,01,30,13,35,12.90
2006,01,30,13,36,12.90
2006,01,30,13,37,17.70
2006,01,30,13,38,11.30
2006,01,30,13,39,12.90
2006,01,30,13,40,11.30
2006,01,30,13,41,11.30
2006,01,30,13,42,3.20
2006,01,30,13,43,3.20
2006,01,30,13,44,8.10
2006,01,30,13,45,6.40
2006,01,30,13,46,9.60
2006,01,30,13,47,9.60
2006,01,30,13,48,6.40
2006,01,30,13,49,8.10
2006,01,30,13,50,16.10
2006,01,30,13,51,14.50
2006,01,30,13,52,20.90
2006,01,30,13,53,24.20
2006,01,30,13,54,25.70
2006,01,30,13,55,19.30
2006,01,30,13,56,17.70
2006,01,30,13,57,14.50
2006,01,30,13,58,22.50
2006,01,30,13,59,25.70
2006,01,30,14,00,25.70
2006,01,30,14,01,27.40
2006,01,30,14,02,20.90
2006,01,30,14,03,22.50
2006,01,30,14,04,24.20
2006,01,30,14,05,20.90
2006,01,30,14,06,27.40
2006,01,30,14,07,25.70
2006,01,30,14,08,33.80
2006,01,30,14,09,33.80
2006,01,30,14,10,30.60
2006,01,30,14,11,17.70
2006,01,30,14,12,25.70
2006,01,30,14,13,27.40
2006,01,30,14,14,30.60
2006,01,30,14,15,25.70
2006,01,30,14,16,24.20
2006,01,30,14,17,32.20
2006,01,30,14,18,30.60
2006,01,30,14,19,30.60
2006,01,30,14,20,30.60
2006,01,30,14,21,19.30
2006,01,30,14,22,24.20
2006,01,30,14,23,25.70
2006,01,30,14,24,22.50
2006,01,30,14,25,19.30
2006,01,30,14,26,20.90
2006,01,30,14,27,24.20
2006,01,30,14,28,19.30
2006,01,30,14,29,22.50
2006,01,30,14,30,16.10
2006,01,30,14,31,16.10
2006,01,30,14,32,19.30
2006,01,30,14,33,17.70
2006,01,30,14,34,20.90
2006,01,30,14,35,27.40
2006,01,30,14,36,14.50
2006,01,30,14,37,22.50
2006,01,30,14,38,20.90
2006,01,30,14,39,19.30
2006,01,30,14,40,20.90
2006,01,30,14,41,22.50
2006,01,30,14,42,27.40
2006,01,30,14,43,24.20
2006,01,30,14,44,20.90
2006,01,30,14,45,19.30
2006,01,30,14,46,22.50
2006,01,30,14,47,17.70
2006,01,30,14,48,17.70
2006,01,30,14,49,17.70
2006,01,30,14,50,24.20
2006,01,30,14,51,25.70
2006,01,30,14,52,20.90
2006,01,30,14,53,24.20
2006,01,30,14,54,19.30
2006,01,30,14,55,16.10
2006,01,30,14,56,16.10
2006,01,30,14,57,22.50
2006,01,30,14,58,30.60
2006,01,30,14,59,24.20
2006,01,30,15,00,32.20
2006,01,30,15,01,33.80
2006,01,30,15,02,24.20
2006,01,30,15,03,19.30
2006,01,30,15,04,29.00
2006,01,30,15,05,25.70
2006,01,30,15,06,22.50
2006,01,30,15,07,22.50
2006,01,30,15,08,19.30
2006,01,30,15,09,20.90
2006,01,30,15,10,20.90
2006,01,30,15,11,25.70
2006,01,30,15,12,19.30
2006,01,30,15,13,20.90
2006,01,30,15,14,22.50
2006,01,30,15,15,19.30
2006,01,30,15,16,29.00
2006,01,30,15,17,17.70
2006,01,30,15,18,24.20
2006,01,30,15,19,16.10
2006,01,30,15,20,25.70
2006,01,30,15,21,27.40
2006,01,30,15,22,27.40
2006,01,30,15,23,20.90
2006,01,30,15,24,20.90
2006,01,30,15,25,29.00
2006,01,30,15,26,17.70
2006,01,30,15,27,20.90
2006,01,30,15,28,17.70
2006,01,30,15,29,8.10
2006,01,30,15,30,16.10
2006,01,30,15,31,29.00
2006,01,30,15,32,32.20
2006,01,30,15,33,25.70
2006,01,30,15,34,27.40
2006,01,30,15,35,20.90
2006,01,30,15,36,30.60
2006,01,30,15,37,30.60
2006,01,30,15,38,12.90
2006,01,30,15,39,8.10
2006,01,30,15,40,22.50
2006,01,30,15,41,9.60
2006,01,30,15,42,22.50
2006,01,30,15,43,8.10
2006,01,30,15,44,22.50
2006,01,30,15,45,17.70
2006,01,30,15,46,14.50
2006,01,30,15,47,16.10
2006,01,30,15,48,17.70
2006,01,30,15,49,22.50
2006,01,30,15,50,14.50
2006,01,30,15,51,9.60
2006,01,30,15,52,12.90
2006,01,30,15,53,16.10
2006,01,30,15,54,6.40
2006,01,30,15,55,14.50
2006,01,30,15,56,22.50
2006,01,30,15,57,11.30
2006,01,30,15,58,16.10
2006,01,30,15,59,6.40
2006,01,30,16,00,9.60
2006,01,30,16,01,9.60
2006,01,30,16,02,17.70
2006,01,30,16,03,6.40
2006,01,30,16,04,16.10
2006,01,30,16,05,16.10
2006,01,30,16,06,14.50
2006,01,30,16,07,17.70
2006,01,30,16,08,6.40
2006,01,30,16,09,22.50
2006,01,30,16,10,20.90
2006,01,30,16,11,11.30
2006,01,30,16,12,9.60
2006,01,30,16,13,9.60
2006,01,30,16,14,9.60
2006,01,30,16,15,11.30
2006,01,30,16,16,24.20
2006,01,30,16,17,22.50
2006,01,30,16,18,25.70
2006,01,30,16,19,17.70
2006,01,30,16,20,20.90
2006,01,30,16,21,16.10
2006,01,30,16,22,22.50
2006,01,30,16,23,14.50
2006,01,30,16,24,14.50
2006,01,30,16,25,14.50
2006,01,30,16,26,17.70
2006,01,30,16,27,14.50
2006,01,30,16,28,11.30
2006,01,30,16,29,16.10
2006,01,30,16,30,16.10
2006,01,30,16,31,11.30
2006,01,30,16,32,11.30
2006,01,30,16,33,14.50
2006,01,30,16,34,16.10
2006,01,30,16,35,14.50
2006,01,30,16,36,9.60
2006,01,30,16,37,12.90
2006,01,30,16,38,11.30
2006,01,30,16,39,20.90
2006,01,30,16,40,19.30
2006,01,30,16,41,17.70
2006,01,30,16,42,27.40
2006,01,30,16,43,24.20
2006,01,30,16,44,24.20
2006,01,30,16,45,29.00
2006,01,30,16,46,20.90
2006,01,30,16,47,22.50
2006,01,30,16,48,27.40
2006,01,30,16,49,24.20
2006,01,30,16,50,22.50
2006,01,30,16,51,16.10
2006,01,30,16,52,22.50
2006,01,30,16,53,25.70
2006,01,30,16,54,20.90
2006,01,30,16,55,20.90
2006,01,30,16,56,20.90
2006,01,30,16,57,22.50
2006,01,30,16,58,17.70
2006,01,30,16,59,17.70
2006,01,30,17,00,16.10
2006,01,30,17,01,17.70
2006,01,30,17,02,22.50
2006,01,30,17,03,19.30
2006,01,30,17,04,19.30
2006,01,30,17,05,11.30
2006,01,30,17,06,19.30
2006,01,30,17,07,19.30
2006,01,30,17,08,16.10
2006,01,30,17,09,11.30
2006,01,30,17,10,24.20
2006,01,30,17,11,29.00
2006,01,30,17,12,29.00
2006,01,30,17,13,20.90
2006,01,30,17,14,19.30
2006,01,30,17,15,16.10
2006,01,30,17,16,14.50
2006,01,30,17,17,16.10
2006,01,30,17,18,19.30
2006,01,30,17,19,12.90
2006,01,30,17,20,11.30
2006,01,30,17,21,11.30
2006,01,30,17,22,19.30
2006,01,30,17,23,9.60
2006,01,30,17,24,6.40
2006,01,30,17,25,14.50
2006,01,30,17,26,14.50
2006,01,30,17,27,9.60
2006,01,30,17,28,17.70
2006,01,30,17,29,11.30
2006,01,30,17,30,6.40
2006,01,30,17,31,9.60
2006,01,30,17,32,6.40
2006,01,30,17,33,11.30
2006,01,30,17,34,27.40
2006,01,30,17,35,17.70